Weather in Mtwara

Tanzania     10°17′05″S   40°11′10″E
temp.,
°C
wind,
m/s
gust,
m/s
humid.,
%
clouds,
%
prec.,
mm/h
press.,
hPa
HPBL,
m
3 august, tue
tue300:00+22sse357617 0.0 1019303
03:00+21sse488116 0.0 1018245
06:00+20s48850 0.0 1019254
09:00+24sse58680 0.0 1022865
12:00+26e876131 0.0 10201137
15:00+25ese9117153 0.1 1018651
18:00+25ese78700 0.3 1019731
21:00+23se687448 0.3 1021649
4 august, wed
wed400:00+21sse46818 0.0 1021332
03:00+21s59810 0.0 1020308
06:00+20s59840 0.0 1021263
09:00+24sse58670 0.0 1022724
12:00+27ese66582 0.0 1021909
15:00+25ese10106538 0.0 1018700
18:00+24ese89660 0.0 1019804
21:00+23se58720 0.0 1021641
5 august, thu
thu500:00+22sse46810 0.0 1021372
03:00+21s45872 0.0 1020186
06:00+20s45906 0.0 1021160
09:00+23sse34757 0.0 1022464
12:00+26e77657 0.1 1021973
15:00+26ese996581 0.1 1018802
18:00+24ese79730 0.0 1019717
21:00+23se57783 0.0 1021698
6 august, fri
fri600:00+22se46832 0.0 1020447
03:00+21s35883 0.1 1019298
06:00+21s34892 0.0 1019157
09:00+24sse35764 0.1 1020501
12:00+26e666712 0.1 1019823
15:00+26e89665 0.2 1016723
18:00+25ese79704 0.0 1017672
21:00+24se68754 0.0 1019591
7 august, sat
sat700:00+23se45795 0.0 1019523
03:00+22sse348434 0.0 1017293
06:00+21s33855 0.0 1018216
09:00+24sse23715 0.0 1019452
12:00+25ene456915 0.0 1019675
15:00+25e576946 0.0 1016747
18:00+25ese79720 0.0 1016763
21:00+24se687674 0.0 1018632